Powrót do katalogu

STARLINK-4755

AktywnyŁącznośćVLEO
NORAD 53851·PAYLOAD·🇺🇸 United States

Wystrzelony Sep 19, 2022 z Cape Canaveral Space Force Station

Loading…

Następne Przeloty (najbliższe 24 godziny)

TLE

ŚwieżeSource: CelesTrak SupGP

Epoka: Sep 15, 2026, 03:04 UTC

1 53851C 22114AK  26258.12826389  .00030232  00000+0  18960-2 0  2587
2 53851  53.1585 162.8418 0001569  85.7398 272.5129 15.08818300    15

Śledź STARLINK-4755 w czasie rzeczywistym z AllMySat

Download on the App Store